[[{"header":{"parameterUnit":"m.s-1","parameterCategory":1,"la1":30.2991,"la2":30.254,"lo1":-89.0895,"lo2":-89.0444,"dy":0.0017,"dx":0.0017,"nx":28,"ny":28,"refTime":"2023-08-16T21:00:00:Z","depth":0,"parameterNumber":2,"parameterNumberName":"U-component_of_WINDS"},"data":[0,0,0,0,0,0,0,0,0,0,0,0,0,0,0,0,0,0,0,0,0,0,0,0,0,0,0,0,0,0,0,0,0,0,0,0,0,0,0,0,0,0,0,0,0,0,0,0,0,0,0,0,0,0,0,0,0,0,-1.434,-1.4339,0,-1.4236,-1.4235,-1.4234,-1.4119,-1.4118,-1.4116,-1.4114,-1.4009,-1.4008,-1.4007,0,0,0,0,0,0,0,0,0,0,0,0,0,-1.444,-1.4439,-1.434,-1.4339,-1.4338,-1.4237,-1.4235,-1.4234,-1.412,-1.4118,-1.4116,-1.4114,-1.4009,-1.4008,-1.4006,0,0,0,0,0,0,0,0,0,0,0,0,0,-1.4373,-1.4438,-1.434,-1.4268,-1.4261,-1.4237,-1.4235,-1.4233,-1.412,-1.4117,-1.4115,-1.4113,-1.401,-1.4008,-1.4006,-1.4045,0,0,-1.4,-1.4,0,0,0,0,0,0,0,0,-1.4377,-1.4369,-1.428,-1.4273,-1.4265,-1.4188,-1.4231,-1.417,-1.4121,-1.4174,-1.4114,-1.4111,-1.4071,-1.4064,-1.405,-1.404,-1.4035,-1.4,-1.3999,-1.3998,-1.3998,0,0,0,0,0,0,0,-1.4381,-1.4373,-1.4299,-1.4279,-1.427,-1.4241,-1.4229,-1.4219,-1.4137,-1.4169,-1.416,-1.4149,-1.4066,-1.4052,-1.4046,-1.4034,-1.4,-1.3999,-1.3998,-1.3997,-1.4051,-1.4053,0,0,0,0,0,0,-1.4397,-1.4378,-1.4302,-1.4296,-1.4316,-1.4242,-1.4228,-1.4215,-1.4137,-1.4123,-1.4152,-1.4144,-1.4056,-1.4049,-1.4042,-1.4083,-1.3998,-1.3997,-1.3996,-1.4048,-1.4052,-1.4054,0,0,0,0,0,0,-1.4399,-1.4391,-1.4307,-1.4334,-1.4321,-1.4243,-1.423,-1.4215,-1.42,-1.4124,-1.4109,-1.4152,-1.4054,-1.4045,-1.4045,-1.4077,-1.3996,-1.3994,-1.4045,-1.4049,-1.4053,-1.4164,0,0,0,0,0,0,-1.4403,-1.4393,-1.4407,-1.4336,-1.432,-1.4311,-1.4231,-1.4214,-1.4197,-1.4187,-1.4121,-1.4107,-1.4051,-1.4049,-1.4043,-1.4073,-1.3993,-1.4042,-1.4047,-1.4052,-1.4157,-1.4171,-1.4183,0,0,0,0,0,-1.4407,-1.4442,-1.4408,-1.4399,-1.4336,-1.4313,-1.4305,-1.4239,-1.42,-1.4214,-1.4165,-1.411,-1.4075,-1.405,-1.4043,-1.4073,-1.404,-1.4046,-1.4051,-1.4151,-1.4169,-1.4183,0,0,0,0,0,0,-1.4519,-1.4431,-1.4393,-1.4406,-1.4368,-1.4294,-1.4309,-1.4259,-1.4232,-1.4223,-1.4143,-1.4129,-1.4139,-1.4105,-1.4079,-1.4106,-1.4049,-1.4054,-1.4128,-1.4144,-1.4156,-1.4165,-1.3991,0,0,0,0,0,-1.4546,-1.4534,-1.4458,-1.4477,-1.446,-1.4388,-1.4376,-1.4329,-1.4286,-1.427,-1.4221,-1.4182,-1.4162,-1.4151,-1.4128,-1.4152,-1.4136,-1.4169,-1.4182,-1.4193,-1.4199,-1.4209,-1.4223,-1.4073,-1.4073,-1.4073,0,0,-1.46,-1.455,-1.4548,-1.4499,-1.4464,-1.4454,-1.4375,-1.4369,-1.4361,-1.4268,-1.4266,-1.4229,-1.418,-1.4193,-1.4195,-1.4165,-1.4236,-1.4201,-1.421,-1.4209,-1.4217,-1.4231,-1.4244,-1.4077,-1.4076,-1.4076,0,0,-1.4694,-1.4655,-1.4667,-1.4634,-1.4582,-1.4534,-1.4537,-1.447,-1.4442,-1.4438,-1.4369,-1.4359,-1.4326,-1.4295,-1.4274,-1.4357,-1.4306,-1.4352,-1.4421,-1.4432,-1.4444,-1.4454,-1.4485,-1.4496,-1.4357,-1.4358,-1.4358,0,-1.4768,-1.4751,-1.468,-1.4677,-1.4658,-1.4574,-1.4585,-1.4556,-1.45,-1.4489,-1.4455,-1.4413,-1.4374,-1.4379,-1.4399,-1.4385,-1.4387,-1.436,-1.4448,-1.4457,-1.4466,-1.4494,-1.4506,-1.4364,-1.4363,-1.4362,-1.4362,0,-1.4845,-1.4834,-1.485,-1.4798,-1.478,-1.4785,-1.4715,-1.4706,-1.466,-1.4616,-1.4613,-1.4564,-1.453,-1.4527,-1.4483,-1.4525,-1.4508,-1.4463,-1.4404,-1.4487,-1.4513,-1.4523,-1.4372,-1.437,-1.4368,-1.4367,0,0,-1.5007,-1.4916,-1.4923,-1.4899,-1.4835,-1.4826,-1.4827,-1.4794,-1.4788,-1.4752,-1.4751,-1.4726,-1.4683,-1.466,-1.4611,-1.4622,-1.4692,-1.4574,-1.4572,-1.4599,-1.4737,-1.4772,-1.4786,-1.4657,-1.4658,-1.466,-1.4741,0,-1.5091,-1.5088,-1.5024,-1.5039,-1.5029,-1.4949,-1.495,-1.4911,-1.487,-1.4855,-1.4809,-1.4793,-1.4738,-1.4723,-1.473,-1.4682,-1.4718,-1.4675,-1.4656,-1.4656,-1.4672,-1.4799,-1.4836,-1.4915,-1.475,-1.4752,-1.4753,0,-1.5188,-1.5158,-1.5173,-1.5109,-1.5102,-1.5104,-1.5069,-1.5056,-1.5011,-1.498,-1.4955,-1.49,-1.4897,-1.4842,-1.4837,-1.4809,-1.4798,-1.4773,-1.4774,-1.4771,-1.4711,-1.4799,-1.4938,-1.4951,-1.4768,-1.4766,-1.4765,0,-1.5306,-1.5269,-1.5273,-1.5254,-1.518,-1.5184,-1.5154,-1.5106,-1.509,-1.506,-1.5049,-1.5019,-1.5003,-1.4981,-1.4919,-1.4884,-1.4922,-1.4861,-1.4897,-1.4899,-1.4909,-1.491,-1.505,-1.4901,-1.4901,-1.49,-1.49,0,-1.5407,-1.5419,-1.5325,-1.5328,-1.5339,-1.5266,-1.5279,-1.5241,-1.5199,-1.5193,-1.5122,-1.5118,-1.5036,-1.5023,-1.4974,-1.4979,-1.4972,-1.4947,-1.4935,-1.4954,-1.4958,-1.4946,-1.494,-1.4904,-1.4903,-1.4902,-1.4902,0,-1.5541,-1.5479,-1.5478,-1.5408,-1.5391,-1.5402,-1.5342,-1.5342,-1.5296,-1.529,-1.5284,-1.5212,-1.5193,-1.5129,-1.5094,-1.5062,-1.5082,-1.5056,-1.5097,-1.5089,-1.5129,-1.5127,-1.5267,-1.5282,-1.5124,-1.5126,-1.5127,0,-1.561,-1.5617,-1.5548,-1.5539,-1.5512,-1.5498,-1.5481,-1.5409,-1.5396,-1.5345,-1.5352,-1.5327,-1.5303,-1.5277,-1.5222,-1.5195,-1.5169,-1.522,-1.5165,-1.5185,-1.5171,-1.5172,-1.5173,-1.5233,-1.5235,-1.5237,-1.5238,0,-1.5739,-1.5708,-1.5687,-1.5656,-1.5639,-1.5611,-1.5578,-1.5575,-1.5495,-1.5483,-1.5463,-1.5445,-1.5409,-1.5386,-1.535,-1.5319,-1.5266,-1.5256,-1.5263,-1.5284,-1.5307,-1.5296,-1.5131,-1.5253,-1.5251,-1.525,-1.525,-1.5249,-1.5842,-1.5846,-1.5798,-1.5777,-1.5746,-1.5718,-1.5714,-1.5668,-1.565,-1.5615,-1.5574,-1.5559,-1.5514,-1.5461,-1.5433,-1.5421,-1.5392,-1.5402,-1.5405,-1.5409,-1.5419,-1.5309,-1.5414,-1.5414,-1.5413,-1.5413,-1.5412,0,-1.5968,-1.5934,-1.5916,-1.5873,-1.5858,-1.5808,-1.577,-1.5761,-1.5748,-1.5711,-1.5689,-1.5666,-1.5643,-1.5587,-1.5559,-1.556,-1.5535,-1.5555,-1.5555,-1.5549,-1.5446,-1.5443,-1.5576,-1.5576,-1.5576,-1.5576,-1.5576,-1.5576,-1.6032,-1.6035,-1.5999,-1.5986,-1.5951,-1.5935,-1.5918,-1.5892,-1.5862,-1.584,-1.582,-1.5783,-1.5738,-1.5707,-1.5684,-1.5668,-1.5661,-1.569,-1.5666,-1.5571,-1.5556,-1.5541,-1.5538,-1.5689,-1.5689,-1.577,-1.5771,-1.5772]},{"header":{"parameterUnit":"m.s-1","parameterCategory":1,"la1":30.2991,"la2":30.254,"lo1":-89.0895,"lo2":-89.0444,"dy":0.0017,"dx":0.0017,"nx":28,"ny":28,"refTime":"2023-08-16T21:00:00:Z","depth":0,"parameterNumber":3,"parameterNumberName":"V-component_of_WINDS"},"data":[0,0,0,0,0,0,0,0,0,0,0,0,0,0,0,0,0,0,0,0,0,0,0,0,0,0,0,0,0,0,0,0,0,0,0,0,0,0,0,0,0,0,0,0,0,0,0,0,0,0,0,0,0,0,0,0,0,0,0.7054,0.7054,0,0.7016,0.7016,0.7016,0.704,0.7041,0.7042,0.7043,0.7002,0.6999,0.6997,0,0,0,0,0,0,0,0,0,0,0,0,0,0.7145,0.7144,0.7054,0.7054,0.7053,0.7016,0.7016,0.7015,0.7039,0.7041,0.7042,0.7044,0.7002,0.7,0.6997,0,0,0,0,0,0,0,0,0,0,0,0,0,0.7106,0.7143,0.7054,0.7061,0.7061,0.7017,0.7016,0.7015,0.7039,0.7041,0.7043,0.7044,0.7003,0.7,0.6997,0.6943,0,0,0.6987,0.6985,0,0,0,0,0,0,0,0,0.7109,0.7103,0.7061,0.7061,0.7061,0.7035,0.7033,0.6991,0.7039,0.7047,0.7043,0.7045,0.7011,0.7007,0.6996,0.6941,0.6939,0.6987,0.6985,0.6983,0.6982,0,0,0,0,0,0,0,0.7111,0.7105,0.7039,0.706,0.706,0.7065,0.7061,0.7025,0.702,0.7047,0.7049,0.7044,0.7011,0.6999,0.6995,0.6938,0.6987,0.6984,0.6982,0.6981,0.6835,0.6833,0,0,0,0,0,0,0.7114,0.7107,0.7041,0.7038,0.7089,0.7062,0.7058,0.7041,0.7021,0.7019,0.7042,0.7045,0.7004,0.6999,0.6994,0.6927,0.6983,0.698,0.6978,0.6837,0.6834,0.6832,0,0,0,0,0,0,0.7116,0.7108,0.7042,0.7073,0.7065,0.7059,0.704,0.704,0.7028,0.7017,0.7016,0.7031,0.7005,0.6999,0.6955,0.6926,0.6979,0.6976,0.6839,0.6836,0.6833,0.6795,0,0,0,0,0,0,0.7118,0.7108,0.7088,0.7072,0.7063,0.7004,0.7038,0.7038,0.7022,0.7025,0.7006,0.7005,0.7006,0.696,0.6952,0.6923,0.6973,0.6841,0.6837,0.6834,0.6798,0.6791,0.6784,0,0,0,0,0,0.7121,0.7079,0.7087,0.7079,0.7038,0.7002,0.6997,0.7,0.702,0.6999,0.6992,0.7005,0.6932,0.6955,0.6946,0.6916,0.6843,0.6839,0.6834,0.6802,0.6792,0.6785,0,0,0,0,0,0,0.709,0.7077,0.7086,0.7037,0.7021,0.7007,0.698,0.6991,0.6968,0.6971,0.6976,0.6971,0.6925,0.6917,0.6943,0.6862,0.689,0.6884,0.6868,0.6859,0.6853,0.6854,0.6971,0,0,0,0,0,0.7078,0.7051,0.704,0.6998,0.699,0.6986,0.6971,0.6975,0.6958,0.6951,0.6941,0.6923,0.6896,0.6878,0.6852,0.6799,0.6793,0.6773,0.6766,0.6761,0.6754,0.6723,0.6713,0.6818,0.6818,0.6818,0,0,0.7052,0.7041,0.7023,0.6992,0.698,0.695,0.698,0.6949,0.6926,0.6946,0.6903,0.6896,0.6876,0.6827,0.6805,0.6818,0.6724,0.6755,0.6751,0.6747,0.6717,0.6707,0.6699,0.6815,0.6815,0.6816,0,0,0.6988,0.6978,0.6941,0.6929,0.691,0.6908,0.69,0.6884,0.688,0.6838,0.6851,0.6825,0.6778,0.6763,0.675,0.6681,0.6691,0.6673,0.6634,0.6604,0.6596,0.6588,0.6561,0.6552,0.6667,0.6667,0.6667,0,0.6957,0.6914,0.6921,0.6887,0.6872,0.689,0.6851,0.6839,0.6812,0.6801,0.6818,0.6759,0.6747,0.6693,0.6676,0.6666,0.6654,0.6673,0.6597,0.6589,0.6582,0.6556,0.6547,0.6664,0.6665,0.6665,0.6665,0,0.6876,0.6846,0.6818,0.6793,0.6775,0.6739,0.6739,0.672,0.6726,0.6722,0.6678,0.6665,0.6636,0.6624,0.663,0.6571,0.658,0.6597,0.6624,0.657,0.6545,0.6536,0.6661,0.6662,0.6663,0.6663,0,0,0.679,0.6769,0.6758,0.6746,0.6727,0.6704,0.6669,0.6641,0.6624,0.6606,0.6574,0.6535,0.655,0.6535,0.6539,0.6512,0.6455,0.6532,0.6532,0.6516,0.6387,0.6372,0.6361,0.6464,0.6462,0.6461,0.6388,0,0.6723,0.6661,0.6666,0.6608,0.6579,0.6596,0.6565,0.6549,0.6545,0.6519,0.6515,0.6485,0.6509,0.65,0.6475,0.6468,0.6429,0.6474,0.6433,0.6431,0.6434,0.6348,0.6333,0.6264,0.6378,0.6377,0.6376,0,0.6636,0.6615,0.6553,0.6538,0.6526,0.6498,0.6473,0.6449,0.6431,0.643,0.6413,0.6421,0.6384,0.6416,0.6364,0.6394,0.6378,0.6372,0.637,0.6363,0.6398,0.6337,0.6243,0.6231,0.6361,0.6362,0.6363,0,0.6576,0.6532,0.6489,0.6479,0.6461,0.644,0.6431,0.6416,0.6399,0.6377,0.6365,0.634,0.6324,0.6304,0.6304,0.6328,0.6251,0.6283,0.6246,0.6246,0.6227,0.6227,0.6126,0.6222,0.6222,0.6222,0.6222,0,0.6498,0.6459,0.6461,0.6435,0.6391,0.6397,0.6354,0.6347,0.6333,0.6305,0.6319,0.6292,0.6296,0.6268,0.6269,0.6224,0.6218,0.6214,0.6214,0.6211,0.6211,0.6198,0.6202,0.622,0.622,0.6221,0.6221,0,0.6422,0.6422,0.6376,0.6363,0.6359,0.6327,0.6315,0.6289,0.6287,0.625,0.6242,0.6238,0.6206,0.6205,0.6169,0.6169,0.6114,0.6121,0.612,0.612,0.6082,0.6085,0.5966,0.595,0.606,0.6059,0.6058,0,0.6371,0.6342,0.6325,0.6307,0.6297,0.6269,0.6251,0.6256,0.6237,0.6215,0.6192,0.6161,0.6137,0.6085,0.6078,0.605,0.6054,0.6015,0.605,0.6047,0.605,0.605,0.6046,0.6007,0.6006,0.6005,0.6004,0,0.628,0.6282,0.6256,0.623,0.6209,0.6189,0.6171,0.6156,0.6159,0.6136,0.6104,0.6086,0.6049,0.6017,0.599,0.598,0.5991,0.5994,0.5983,0.5978,0.5977,0.5974,0.6097,0.5995,0.5996,0.5997,0.5997,0.5998,0.6213,0.6186,0.617,0.6141,0.6128,0.6111,0.6085,0.608,0.6053,0.6023,0.6029,0.5992,0.5975,0.5939,0.5927,0.5898,0.5912,0.5897,0.5893,0.5888,0.5883,0.5985,0.5894,0.5894,0.5894,0.5894,0.5895,0,0.6119,0.611,0.6084,0.6057,0.6034,0.6049,0.6029,0.6008,0.5976,0.596,0.5936,0.5898,0.5868,0.5859,0.583,0.5808,0.5812,0.5799,0.5799,0.5796,0.5874,0.5884,0.5796,0.5796,0.5796,0.5796,0.5796,0.5796,0.6068,0.6023,0.6023,0.5972,0.5963,0.5927,0.5914,0.5898,0.5884,0.5842,0.5817,0.5812,0.5798,0.5768,0.574,0.5738,0.5725,0.571,0.571,0.5782,0.5791,0.58,0.581,0.5708,0.5708,0.5634,0.5634,0.5633]}]]